Location: Oroua River
(40.4333°S, 175.4333°E)
Time: 12:08:42
(UTC+00:00)

ATLAS 3B R/B - Pass Details

Date: 03 February 2023
Orbit: 961 x 1233 km, 63.8° (Epoch: 28 March)

Event Time Altitude Azimuth Distance (km) Brightness Sun altitude
Rises 12:44:43 0° 223° (SW) 3,729 6.1 -33.0°
Reaches altitude 10° 12:47:36 10° 232° (SW) 2,750 5.2 -32.9°
Enters shadow 12:50:42 24° 255° (WSW) 1,897 4.0 -32.9°
